Wind_Speed
5 7 6 4 4 1 1 3 1 3 4 6 4 2 1 3 2 2 0 2 2 2 4 5 6 11 11 15 19 19 20 24 26 25 23 20 18 14 10 6 4 2 1 3 5 9 9 8 8 9 11 12 11 10 12 14 14 14 14 14 14 14 16
4 6 8 4 2 5 3 0 3 3 2 4 4 1 3 4 2 3 1 3 3 1 1 1 4 9 9 9 12 14 18 24 26 25 24 21 16 13 10 7 5 2 2 3 7 9 8 8 8 10 12 11 10 11 13 14 14 13 12 12 14 16 17
3 1 7 4 4 1 4 3 3 3 2 2 2 2 1 1 1 3 2 1 4 3 4 6 8 11 11 9 9 10 14 21 25 25 24 20 16 14 12 8 4 3 5 6 7 7 7 8 9 11 12 12 12 12 14 14 15 13 11 12 15 16 16
2 4 4 0 4 4 3 2 2 2 3 3 1 2 3 3 2 2 1 1 3 4 6 10 12 13 13 11 8 9 15 23 27 27 24 22 19 16 12 8 4 4 5 6 6 7 8 9 11 13 13 12 12 14 15 15 15 14 12 13 15 15 15
3 3 2 4 5 2 2 3 2 2 1 1 1 1 2 4 3 2 2 2 5 5 5 10 13 12 11 12 10 10 18 26 29 28 25 23 20 15 11 8 3 4 5 6 7 9 10 11 13 14 12 12 13 14 14 15 16 16 14 15 16 15 14
2 3 6 6 8 6 5 3 2 2 1 2 2 3 3 2 4 4 4 3 6 5 4 8 11 10 11 15 15 14 21 28 28 27 24 21 18 13 10 6 3 4 6 7 8 9 10 11 13 12 12 13 13 13 15 15 16 16 15 16 16 16 15
4 6 5 4 7 7 6 3 2 4 3 5 5 4 4 0 1 1 3 1 6 6 4 7 10 13 16 20 22 20 22 28 28 25 23 19 15 11 7 5 4 5 6 7 7 8 10 11 11 11 12 13 12 13 15 15 15 15 15 15 16 16 16
3 5 4 3 3 4 4 1 1 4 3 3 5 5 3 3 1 1 2 1 6 6 3 8 13 17 19 20 24 25 24 26 27 25 21 17 13 8 5 5 5 6 7 8 7 8 9 10 10 10 12 12 11 13 15 15 15 14 12 13 15 16 16
5 6 6 5 5 3 2 3 3 2 4 5 3 2 4 1 4 5 4 3 6 5 2 7 9 12 13 16 22 27 26 25 26 24 19 15 11 7 6 6 6 8 9 8 8 8 8 8 9 11 11 11 11 13 14 14 13 12 10 11 14 15 15
2 2 3 3 3 1 1 3 4 1 4 7 3 2 4 1 4 6 5 4 6 5 2 6 6 7 9 12 17 23 25 25 25 21 17 13 10 8 7 7 7 9 9 8 7 7 7 8 9 10 11 11 12 13 13 12 11 9 8 10 13 15 14
7 7 7 5 2 2 2 4 5 5 4 6 5 3 2 4 4 3 5 6 4 5 7 10 9 8 9 10 15 20 23 24 22 18 14 11 9 7 7 6 8 10 9 8 7 6 7 8 9 10 10 11 13 13 11 10 9 8 8 10 13 13 12
7 8 7 5 2 3 5 5 6 8 7 4 6 4 5 5 5 4 8 6 6 7 11 14 12 10 9 11 16 22 24 23 20 17 14 11 9 7 7 7 10 11 9 6 5 7 8 8 9 9 10 11 11 11 11 11 10 8 8 11 12 11 10
5 5 4 4 2 3 4 4 6 9 8 5 5 7 7 7 6 8 9 9 9 10 11 14 14 13 14 15 20 23 23 22 20 17 15 12 9 7 7 9 12 11 8 5 5 7 8 9 11 11 10 11 10 10 12 12 9 8 8 10 11 9 9
3 3 3 2 1 2 4 6 8 10 10 9 7 7 7 9 9 11 9 9 11 10 9 9 10 16 19 20 22 23 23 23 21 18 15 12 10 9 9 11 12 10 6 4 6 9 10 11 13 12 11 10 9 10 12 11 8 8 8 9 9 8 9
5 5 3 3 4 3 4 6 8 9 9 8 6 5 5 7 8 8 5 6 8 7 3 5 13 21 23 21 22 23 24 23 20 17 15 13 12 12 12 12 11 8 6 6 7 10 11 11 12 11 10 9 9 9 11 9 8 9 8 7 8 9 10
4 5 4 5 6 5 5 6 6 7 7 5 5 5 3 5 5 2 2 3 6 4 3 9 16 22 21 19 20 21 22 22 20 18 17 16 15 14 14 14 11 9 8 7 8 9 10 11 11 11 9 8 7 8 9 8 8 10 8 6 8 10 11
4 5 1 2 4 6 5 6 4 5 6 6 7 5 1 3 3 5 4 5 5 5 8 10 11 13 16 18 20 21 22 22 20 19 18 17 17 16 15 13 11 10 9 8 7 8 10 10 11 10 8 7 7 7 7 8 8 8 7 7 9 10 11
4 6 2 3 3 3 6 7 4 3 5 7 9 6 4 5 3 5 4 4 6 7 9 12 12 13 18 22 23 22 24 24 21 19 18 18 17 14 13 12 11 10 10 8 7 8 9 10 11 10 7 6 8 7 7 8 9 8 8 8 9 10 12
3 3 4 2 5 6 7 7 6 7 8 7 8 6 4 4 4 8 8 8 9 8 10 15 17 20 22 23 23 22 21 22 20 20 20 18 16 14 12 11 11 11 10 8 7 7 8 11 11 8 6 7 9 9 8 10 11 10 10 10 10 11 13
2 1 2 4 7 6 5 8 8 7 6 4 4 3 4 5 3 9 11 8 8 9 13 18 19 21 22 20 21 21 19 19 19 19 20 18 15 13 12 10 10 10 8 6 6 7 8 10 10 8 7 8 9 9 9 10 12 12 12 12 11 12 14
3 3 3 3 4 6 6 7 7 5 4 4 5 3 2 6 4 6 11 9 7 11 16 20 21 21 17 12 14 20 20 19 19 17 17 15 13 12 12 10 9 8 7 6 6 7 9 10 9 8 9 9 9 9 10 10 11 12 13 13 12 13 14
3 4 2 2 3 5 6 8 8 7 7 6 5 5 1 7 7 4 12 11 9 12 15 18 20 17 10 3 8 18 22 20 19 17 15 14 13 13 11 9 9 8 8 7 7 7 9 10 9 8 9 10 11 11 11 10 10 11 13 13 12 12 12
3 5 3 3 4 5 7 9 9 8 5 5 7 4 3 6 5 5 13 13 13 17 18 18 16 10 4 4 9 16 21 21 20 18 16 15 14 11 8 7 9 9 8 8 8 9 10 10 8 8 10 10 12 14 13 12 11 11 13 12 11 11 10
5 6 4 3 3 5 7 7 5 6 3 5 7 1 7 5 0 8 16 17 17 20 21 18 11 6 5 5 6 11 18 21 21 19 16 16 14 10 8 9 10 9 9 10 10 10 10 10 9 9 9 10 12 14 14 13 12 12 11 11 10 10 10
6 6 4 3 3 5 6 4 2 3 1 3 3 5 7 5 7 12 16 18 18 19 19 14 8 7 6 3 2 8 15 17 18 17 16 16 14 11 10 11 10 11 12 12 11 9 8 8 10 10 10 10 12 12 12 13 13 11 10 8 8 9 10
4 4 3 3 4 5 5 3 2 3 1 4 5 5 7 9 12 12 11 11 12 12 13 10 5 4 4 2 2 6 7 8 10 13 15 16 15 13 12 12 12 13 13 11 10 8 7 7 8 9 9 11 12 11 12 12 10 9 8 7 7 9 10
3 2 3 2 5 6 6 5 2 2 3 6 7 8 9 9 10 9 7 7 8 7 8 8 6 5 5 3 2 4 5 5 7 12 15 17 17 16 15 14 13 12 12 11 10 9 8 7 7 8 10 12 12 12 12 10 8 8 7 7 8 9 10
4 4 5 5 5 7 8 7 3 3 8 11 12 13 11 8 7 6 5 5 5 4 5 8 7 5 3 3 3 4 5 6 10 13 15 16 17 16 16 15 14 13 13 13 12 11 10 8 7 9 12 13 12 12 11 8 7 8 8 9 10 9 10
4 4 5 7 9 11 10 7 7 10 13 14 14 12 10 7 6 5 5 5 6 6 6 8 7 5 4 5 6 8 8 9 11 13 14 16 16 15 16 15 15 15 13 13 13 13 12 10 10 12 13 12 12 13 11 9 9 10 10 10 10 9 9
3 1 3 7 9 10 10 10 10 11 14 16 15 9 6 5 5 4 5 6 7 7 6 5 4 4 5 7 9 11 12 13 14 14 14 14 13 14 16 16 16 15 13 14 16 16 15 14 14 14 12 10 11 12 11 10 10 11 12 12 10 8 7
3 2 3 1 3 4 8 11 11 9 10 14 12 7 6 8 8 6 6 5 5 4 2 4 5 7 9 11 12 13 14 14 15 16 15 14 14 15 16 16 16 14 13 14 16 16 16 14 14 14 12 9 8 9 9 9 9 10 11 11 10 7 6
3 3 2 8 17 15 11 12 13 12 12 13 11 11 13 13 12 10 8 7 4 1 2 4 6 8 9 10 11 12 13 13 15 17 16 14 14 14 14 14 14 14 14 14 14 15 15 13 13 13 11 8 7 7 8 9 9 9 7 7 8 7 7
1 0 4 12 17 15 14 15 15 15 16 16 14 14 12 10 10 9 6 5 5 4 4 5 6 6 6 6 6 7 8 10 14 15 14 13 12 11 11 10 11 12 13 14 14 15 14 12 11 12 10 8 8 8 8 9 7 3 3 5 6 8 7
2 2 3 6 5 3 7 11 12 10 10 10 10 9 8 8 7 7 6 7 7 7 6 6 6 6 5 4 4 5 6 9 12 13 13 13 13 11 10 9 10 11 12 13 14 14 12 10 10 10 9 8 7 8 10 10 7 5 7 6 7 8 7
3 6 7 6 5 7 11 12 11 9 7 6 6 6 7 7 6 6 7 8 7 7 6 6 4 4 4 4 4 5 6 7 10 11 12 13 12 11 11 11 11 11 12 13 14 12 10 8 8 8 7 6 6 7 9 9 8 8 9 8 8 8 7
4 7 11 11 8 10 13 11 8 6 5 5 5 5 5 6 6 6 6 7 7 7 7 6 4 4 4 5 6 6 6 7 10 11 12 12 12 12 12 12 11 11 12 12 11 10 9 9 8 8 8 8 8 9 10 10 10 10 11 11 11 10 9
5 9 12 10 8 11 13 8 3 3 3 4 5 6 6 6 5 5 4 5 6 7 6 4 4 6 7 7 7 8 7 7 9 12 13 13 12 12 12 11 11 11 11 10 9 10 11 13 13 12 12 11 10 10 11 12 12 11 11 12 12 11 10
Wind_Direction
175 163 159 125 108 172 298 31 55 214 170 128 124 252 305 70 60 315 24 89 329 8 11 355 85 113 123 137 147 149 148 153 154 154 158 163 166 164 165 173 173 185 327 328 251 241 251 256 263 286 305 318 317 312 327 339 340 337 334 332 334 339 343
235 166 120 83 122 146 120 248 224 196 95 77 102 126 357 41 69 290 345 141 202 161 94 292 119 126 140 153 152 144 144 150 152 156 161 165 169 171 174 174 161 192 276 269 238 239 251 261 283 306 318 321 312 312 331 342 341 340 338 331 330 335 341
224 60 84 38 323 82 121 177 180 114 94 351 40 113 94 60 280 297 345 170 211 194 173 191 174 160 168 173 158 142 146 152 154 158 164 168 173 176 176 170 168 222 257 253 237 242 261 277 302 318 323 318 309 316 332 343 344 340 334 332 333 335 340
128 29 51 268 287 324 42 63 35 64 145 169 169 154 148 152 217 270 307 209 239 231 195 185 186 180 173 172 168 156 157 159 160 164 168 172 177 179 179 175 185 242 252 247 244 260 279 292 309 319 323 320 318 325 332 340 344 338 330 333 337 339 342
68 64 243 203 196 209 49 49 23 353 9 99 148 250 132 135 152 180 174 228 258 252 197 185 190 186 174 171 167 162 164 165 166 169 173 177 180 182 185 182 195 245 249 257 268 281 288 298 312 320 327 328 327 331 333 337 341 338 331 334 341 346 348
122 209 234 189 166 160 142 139 166 180 144 92 111 287 304 101 137 160 157 216 264 260 190 185 188 180 177 170 160 162 169 169 170 175 179 182 184 183 185 186 208 248 261 269 274 284 293 304 315 323 331 333 332 332 334 335 337 335 331 332 340 347 348
191 240 254 160 155 150 133 148 183 160 136 116 139 229 262 321 50 130 121 177 267 259 195 179 179 176 176 168 159 160 169 172 174 179 180 182 183 182 184 202 236 265 275 272 276 292 302 309 317 325 330 331 331 329 330 332 332 330 328 327 334 341 343
308 305 330 48 76 93 98 353 204 148 156 144 156 185 173 149 193 130 94 245 268 274 204 171 175 174 171 166 159 158 164 172 177 177 176 177 178 178 193 220 244 269 276 275 283 297 304 312 320 324 325 326 327 326 326 328 325 322 322 323 331 337 338
336 337 350 357 349 24 75 282 275 165 129 112 122 132 90 103 211 155 132 232 255 274 193 164 174 170 167 168 163 159 161 166 171 171 170 171 174 184 209 224 248 268 272 274 282 292 302 313 317 317 318 320 323 323 324 324 320 316 318 324 330 333 336
206 251 266 266 275 319 311 278 287 284 136 134 145 119 102 219 229 151 148 220 258 282 215 185 202 183 169 169 161 159 160 161 164 165 166 173 180 193 211 226 254 264 261 261 271 288 304 314 316 315 316 318 320 321 323 326 321 315 314 321 326 330 336
189 196 218 230 168 155 265 272 283 288 232 170 141 101 141 196 188 174 208 207 213 245 212 202 211 190 174 172 158 156 158 158 162 166 170 179 186 199 219 237 249 247 242 248 269 296 313 323 326 322 319 318 317 320 326 330 325 316 311 318 328 335 342
202 191 210 238 197 200 236 252 269 281 270 198 155 192 221 164 138 251 252 199 182 224 215 205 203 186 178 178 163 157 158 161 165 170 174 182 191 205 221 228 229 229 230 246 285 310 319 329 334 332 326 321 321 326 331 332 329 321 320 327 334 341 349
223 199 223 251 230 236 255 266 267 271 272 245 197 215 212 157 166 241 235 194 201 226 221 212 203 183 176 171 162 158 161 165 169 172 176 188 195 196 203 211 216 220 228 260 307 318 321 331 335 333 328 323 328 334 332 333 336 335 338 341 342 348 356
283 269 272 273 286 289 290 294 284 272 260 241 221 220 203 178 203 233 221 203 218 228 226 222 195 172 165 159 156 159 164 169 173 175 182 191 190 188 198 205 210 218 236 280 316 319 320 326 329 328 322 323 332 335 332 338 349 352 351 347 348 359 360
306 304 327 334 352 343 301 297 294 281 266 252 245 245 212 197 225 242 222 213 243 258 239 179 161 158 155 151 154 163 170 174 176 179 185 188 187 195 208 209 213 226 248 281 306 313 315 319 323 322 318 325 334 331 329 337 351 355 351 346 352 0 356
274 291 343 338 351 1 317 295 286 279 282 273 266 271 248 229 229 194 136 214 252 259 105 122 141 146 145 149 157 165 172 177 181 183 185 188 194 206 216 217 223 235 251 276 291 301 310 315 323 324 322 329 331 322 326 337 347 350 346 337 340 346 344
261 279 357 10 10 5 306 266 239 267 291 286 286 302 280 221 164 134 171 221 220 178 126 118 130 137 143 155 164 170 175 178 183 187 188 195 205 212 218 222 231 244 254 270 279 289 305 314 323 326 326 332 326 314 323 335 342 345 337 324 325 329 333
258 283 18 52 6 323 258 240 218 249 271 270 274 263 202 202 162 132 162 166 152 157 148 143 153 162 165 171 176 180 181 178 182 194 200 204 207 209 217 226 235 245 250 257 267 283 307 319 322 323 329 338 331 319 320 327 332 337 333 326 326 330 334
212 304 40 27 265 244 244 265 276 270 264 255 250 238 219 230 173 130 124 140 155 165 164 160 165 168 168 171 175 179 183 187 193 201 201 200 202 206 216 227 233 238 238 243 263 291 316 319 314 313 325 332 328 323 316 312 315 321 326 329 331 333 332
174 81 102 214 244 255 285 301 294 284 286 265 234 256 322 307 212 145 133 146 159 154 156 159 160 161 163 169 177 184 195 204 207 205 199 197 203 211 220 229 228 228 233 253 289 305 309 308 305 306 315 317 317 321 314 303 304 307 311 319 324 324 326
169 162 197 236 284 304 308 295 277 279 287 240 200 187 327 317 294 149 136 143 154 150 153 156 154 154 154 164 192 201 204 207 209 210 207 205 209 216 221 223 221 229 249 268 285 290 290 297 300 299 300 298 298 309 309 301 301 299 300 309 314 316 321
151 148 228 298 294 277 261 251 261 279 269 224 150 110 9 316 312 172 146 145 151 147 148 152 150 147 141 155 216 205 201 204 208 210 209 211 216 216 212 210 216 232 245 242 244 265 278 283 288 288 289 286 284 292 298 297 296 294 295 303 308 310 318
149 152 206 223 214 245 243 241 267 286 250 164 96 67 290 305 318 158 146 143 150 152 155 157 150 141 155 231 228 206 200 204 208 209 211 212 211 206 200 214 230 232 224 218 227 249 263 268 274 284 286 281 279 285 289 287 285 288 293 301 308 313 318
176 170 202 219 219 248 237 228 264 287 235 125 90 307 256 262 38 137 144 150 156 157 159 159 154 160 195 229 243 211 201 205 210 213 215 210 204 204 216 230 233 222 215 221 232 242 251 258 270 280 281 279 282 285 285 282 281 287 293 300 309 313 313
178 176 199 243 255 250 239 238 322 322 237 127 145 223 224 189 135 125 135 148 158 162 164 166 178 203 207 232 257 197 201 212 221 225 225 218 215 222 233 234 224 216 220 227 234 241 244 253 267 276 278 282 288 289 288 286 287 292 296 298 306 309 308
171 173 188 246 272 252 223 190 60 56 159 215 220 192 151 138 134 126 124 136 149 163 172 178 193 191 173 145 133 172 202 228 228 223 219 214 214 220 226 223 214 214 221 227 236 241 232 236 257 269 277 290 296 295 294 296 299 302 298 289 294 305 311
158 159 173 214 258 246 201 160 81 44 160 185 181 154 134 130 135 133 125 130 141 155 169 176 181 169 163 172 177 193 233 244 211 205 207 209 217 224 222 212 209 218 233 242 245 238 222 229 259 277 287 298 302 298 298 302 304 304 298 283 282 297 312
147 167 203 217 212 191 170 161 171 168 157 157 155 155 157 158 160 163 157 151 167 198 192 180 184 194 210 241 249 245 246 222 200 202 209 214 221 224 218 214 222 238 250 254 248 232 224 241 279 290 291 297 300 296 295 295 289 286 288 283 277 283 302
173 181 206 202 182 169 163 162 166 162 161 163 163 166 174 181 183 191 191 182 189 202 198 191 201 232 258 268 272 272 261 237 222 222 222 221 223 222 218 221 233 245 255 258 248 238 239 257 282 290 287 291 297 296 292 292 285 274 272 273 268 269 290
224 185 172 176 173 169 158 142 145 160 170 173 172 173 183 178 168 181 193 189 181 177 186 207 226 257 282 288 284 276 267 256 249 242 231 221 217 216 217 225 238 249 254 251 245 245 252 262 278 288 283 282 296 301 297 293 286 276 269 263 251 253 279
171 223 261 209 88 124 142 132 132 154 178 182 175 152 127 130 134 149 164 159 161 176 236 289 286 289 298 299 292 281 271 260 246 236 228 220 215 219 227 240 252 258 257 251 248 251 255 262 277 286 278 273 295 306 296 283 284 287 277 255 238 245 276
165 222 248 78 73 72 85 100 106 120 142 157 146 117 110 114 114 124 137 131 127 151 315 307 293 293 297 296 294 290 278 257 236 229 230 229 230 235 243 252 260 263 264 261 254 251 255 265 280 284 273 263 279 292 283 279 290 295 275 238 230 246 269
15 307 102 92 79 68 72 82 87 100 114 122 117 108 106 100 91 91 94 73 44 15 347 325 310 309 306 295 291 289 269 238 224 225 228 230 234 236 238 244 253 259 262 260 255 255 261 270 280 279 271 264 270 278 280 285 293 277 214 213 234 246 262
350 232 162 123 102 102 112 107 104 107 112 115 112 99 79 59 46 34 23 18 16 8 352 337 324 312 303 290 267 256 245 230 227 229 230 231 232 229 225 232 242 248 252 253 253 256 262 269 276 280 279 278 280 282 286 290 280 224 210 227 239 244 262
208 218 200 172 154 156 148 133 124 125 121 111 102 78 50 36 20 3 360 4 9 9 1 349 331 304 301 309 293 276 260 243 236 232 229 232 237 238 240 248 254 253 250 246 249 256 262 266 273 279 279 277 277 279 284 287 272 240 229 232 234 241 260
200 195 185 182 180 161 148 136 123 116 113 103 94 76 56 51 45 32 23 14 3 352 345 344 344 345 353 351 332 314 295 265 249 243 242 247 254 258 260 262 260 253 245 243 249 263 270 270 273 278 275 273 276 279 281 280 271 257 246 240 240 246 258
160 170 166 168 176 163 151 145 135 132 144 137 115 108 103 86 66 47 27 4 348 343 343 343 347 349 350 345 335 327 317 288 258 251 253 256 259 261 262 259 255 250 245 246 258 273 278 277 276 274 274 279 287 290 288 283 278 270 260 253 254 258 268
Height
1485 1488 1488 1485 1496 1508 1508 1508 1513 1512 1507 1511 1525 1535 1531 1532 1543 1543 1541 1546 1541 1533 1532 1526 1521 1523 1523 1524 1526 1528 1530 1531 1532 1534 1535 1536 1537 1538 1539 1539 1539 1539 1538 1538 1538 1538 1538 1538 1539 1538 1537 1536 1535 1535 1534 1533 1532 1530 1529 1527 1525 1524 1522
1489 1484 1487 1487 1489 1497 1506 1513 1510 1505 1506 1510 1519 1534 1538 1541 1550 1545 1541 1549 1548 1544 1542 1532 1526 1527 1527 1526 1526 1528 1530 1530 1532 1533 1533 1535 1536 1536 1537 1536 1536 1536 1535 1536 1536 1536 1537 1537 1537 1536 1535 1534 1534 1533 1533 1531 1530 1529 1527 1525 1524 1522 1521
1493 1484 1490 1498 1493 1490 1498 1503 1500 1504 1518 1522 1523 1532 1541 1546 1553 1548 1545 1550 1547 1541 1538 1532 1529 1528 1526 1526 1526 1527 1529 1529 1530 1531 1532 1533 1534 1534 1534 1533 1534 1534 1533 1534 1534 1535 1536 1535 1535 1534 1533 1533 1532 1532 1531 1530 1529 1527 1526 1524 1523 1521 1520
1492 1491 1498 1508 1505 1495 1494 1497 1499 1504 1514 1520 1522 1526 1531 1540 1549 1550 1550 1553 1544 1531 1526 1526 1525 1523 1521 1524 1524 1525 1526 1526 1527 1528 1529 1531 1531 1532 1532 1532 1532 1532 1532 1532 1532 1533 1534 1533 1533 1532 1532 1531 1530 1530 1529 1528 1527 1525 1524 1523 1521 1520 1519
1497 1504 1504 1505 1506 1503 1502 1505 1509 1510 1511 1514 1519 1521 1522 1529 1540 1547 1554 1555 1539 1520 1516 1518 1519 1518 1517 1518 1519 1521 1523 1523 1524 1525 1527 1528 1529 1530 1531 1531 1531 1531 1532 1532 1531 1532 1532 1532 1532 1531 1530 1530 1528 1528 1527 1525 1524 1523 1522 1521 1519 1518 1517
1505 1506 1498 1493 1497 1499 1503 1507 1509 1511 1512 1516 1525 1530 1525 1522 1529 1537 1546 1548 1530 1513 1511 1513 1513 1514 1514 1514 1515 1517 1519 1520 1522 1524 1525 1527 1528 1529 1529 1529 1530 1531 1531 1531 1531 1530 1531 1530 1530 1529 1529 1528 1527 1526 1525 1524 1523 1521 1520 1519 1518 1517 1515
1504 1500 1491 1489 1491 1491 1496 1501 1502 1505 1509 1514 1525 1533 1528 1523 1526 1528 1536 1542 1526 1509 1507 1508 1509 1511 1511 1512 1513 1514 1517 1519 1521 1523 1524 1526 1527 1527 1528 1529 1529 1530 1530 1530 1530 1529 1529 1529 1528 1528 1527 1526 1526 1525 1524 1523 1521 1520 1519 1518 1517 1515 1514
1499 1494 1490 1489 1489 1491 1498 1501 1499 1502 1506 1508 1514 1519 1519 1522 1527 1527 1536 1542 1525 1507 1505 1506 1508 1509 1510 1513 1513 1513 1517 1518 1519 1522 1523 1524 1525 1525 1527 1527 1528 1529 1528 1528 1528 1527 1527 1527 1527 1526 1525 1525 1524 1523 1523 1522 1520 1519 1517 1517 1516 1515 1513
1513 1508 1505 1501 1497 1498 1503 1504 1500 1500 1503 1505 1509 1513 1515 1521 1523 1522 1531 1536 1521 1507 1505 1506 1508 1510 1511 1513 1513 1513 1515 1516 1518 1520 1521 1522 1524 1524 1525 1526 1526 1527 1527 1527 1526 1526 1526 1526 1525 1524 1524 1523 1523 1522 1521 1520 1518 1517 1516 1516 1515 1514 1512
1528 1524 1519 1512 1507 1505 1505 1504 1501 1500 1502 1505 1509 1514 1518 1522 1522 1520 1523 1523 1515 1508 1507 1508 1509 1510 1510 1511 1512 1512 1512 1514 1516 1518 1520 1521 1522 1523 1524 1524 1524 1525 1525 1525 1524 1524 1524 1524 1523 1523 1522 1522 1521 1521 1520 1518 1517 1516 1515 1515 1514 1512 1511
1514 1514 1511 1505 1505 1508 1508 1505 1502 1501 1501 1502 1507 1515 1518 1517 1518 1520 1516 1511 1510 1509 1508 1507 1507 1508 1509 1509 1510 1510 1511 1513 1515 1517 1519 1520 1520 1522 1522 1522 1523 1523 1523 1523 1522 1522 1523 1522 1522 1521 1520 1520 1520 1519 1518 1517 1515 1514 1514 1513 1512 1511 1510
1502 1503 1502 1500 1502 1506 1506 1504 1503 1501 1500 1501 1506 1511 1510 1509 1516 1520 1511 1506 1509 1507 1503 1502 1502 1504 1506 1506 1506 1508 1509 1512 1514 1516 1518 1519 1519 1520 1520 1521 1522 1522 1522 1522 1521 1521 1521 1521 1520 1520 1519 1519 1518 1517 1516 1515 1514 1513 1513 1512 1510 1510 1509
1501 1501 1500 1499 1501 1503 1502 1502 1502 1500 1500 1501 1503 1504 1503 1504 1510 1509 1502 1502 1504 1499 1496 1496 1495 1497 1500 1502 1504 1507 1509 1511 1513 1515 1517 1517 1517 1518 1519 1520 1520 1521 1521 1520 1519 1519 1519 1519 1519 1518 1518 1517 1516 1516 1515 1514 1513 1512 1511 1510 1509 1508 1507
1501 1500 1500 1498 1500 1502 1501 1500 1500 1499 1498 1497 1498 1499 1498 1499 1500 1496 1495 1500 1499 1492 1491 1491 1491 1495 1499 1501 1504 1507 1508 1511 1512 1513 1515 1515 1515 1517 1518 1519 1519 1519 1519 1518 1518 1518 1518 1518 1518 1517 1517 1516 1515 1515 1514 1513 1512 1511 1510 1509 1508 1507 1506
1504 1499 1497 1497 1499 1502 1503 1502 1499 1497 1496 1495 1494 1494 1493 1495 1497 1494 1495 1500 1498 1490 1489 1489 1491 1495 1498 1501 1504 1505 1507 1509 1510 1511 1513 1513 1514 1516 1517 1517 1517 1517 1516 1516 1516 1516 1516 1517 1516 1516 1515 1515 1514 1514 1513 1512 1511 1510 1509 1508 1507 1506 1505
1508 1500 1499 1500 1499 1501 1503 1502 1499 1497 1496 1495 1492 1490 1489 1491 1493 1495 1498 1500 1496 1490 1488 1489 1492 1494 1497 1500 1503 1504 1507 1508 1508 1509 1510 1511 1513 1514 1515 1515 1515 1514 1514 1514 1514 1515 1515 1515 1515 1515 1514 1513 1513 1513 1512 1511 1510 1509 1509 1508 1507 1505 1504
1508 1501 1501 1502 1502 1509 1510 1501 1495 1494 1494 1493 1492 1489 1488 1486 1487 1492 1495 1492 1490 1489 1489 1491 1494 1496 1497 1499 1500 1502 1504 1505 1506 1508 1509 1510 1511 1511 1512 1513 1512 1513 1512 1512 1513 1514 1514 1514 1513 1513 1513 1512 1512 1511 1511 1510 1509 1508 1508 1507 1506 1505 1503
1509 1504 1500 1503 1514 1521 1512 1493 1487 1491 1492 1492 1493 1490 1486 1484 1484 1486 1487 1485 1486 1489 1488 1489 1492 1493 1493 1495 1497 1499 1501 1503 1505 1506 1507 1508 1509 1509 1510 1510 1510 1511 1511 1511 1512 1512 1513 1512 1512 1511 1511 1511 1510 1510 1509 1509 1508 1507 1506 1506 1505 1504 1502
1508 1504 1503 1517 1527 1516 1498 1486 1484 1485 1485 1486 1489 1488 1485 1484 1482 1481 1483 1485 1485 1487 1487 1487 1489 1490 1492 1495 1497 1498 1500 1501 1502 1504 1505 1506 1506 1507 1507 1508 1508 1508 1509 1510 1511 1511 1511 1511 1510 1510 1510 1509 1509 1509 1508 1507 1506 1506 1505 1505 1504 1503 1502
1507 1508 1513 1524 1520 1501 1489 1488 1484 1481 1482 1483 1486 1490 1489 1486 1482 1480 1481 1485 1486 1486 1488 1489 1490 1492 1493 1495 1497 1498 1499 1500 1501 1502 1503 1503 1504 1504 1505 1505 1506 1506 1507 1508 1509 1509 1509 1509 1509 1508 1508 1508 1507 1507 1506 1506 1505 1505 1504 1504 1503 1502 1501
1505 1510 1514 1512 1508 1501 1496 1490 1483 1481 1483 1481 1483 1490 1491 1485 1482 1479 1480 1484 1487 1487 1488 1490 1491 1493 1495 1497 1498 1497 1498 1499 1500 1500 1501 1501 1502 1502 1502 1503 1504 1505 1506 1506 1507 1507 1507 1507 1507 1507 1506 1506 1505 1505 1504 1504 1503 1503 1503 1502 1502 1501 1500
1500 1507 1512 1512 1515 1512 1499 1487 1481 1478 1479 1477 1476 1485 1491 1487 1482 1480 1479 1482 1486 1487 1489 1491 1492 1493 1497 1499 1497 1496 1497 1498 1499 1499 1500 1500 1500 1500 1501 1502 1503 1503 1504 1504 1504 1505 1505 1505 1505 1505 1505 1504 1503 1503 1502 1502 1501 1501 1501 1500 1500 1499 1498
1499 1504 1511 1514 1514 1506 1492 1483 1479 1477 1478 1474 1473 1488 1497 1489 1481 1482 1480 1481 1485 1486 1488 1490 1491 1494 1498 1498 1495 1493 1495 1496 1497 1498 1498 1498 1499 1499 1500 1501 1501 1501 1502 1501 1502 1502 1503 1503 1503 1503 1503 1502 1501 1501 1500 1500 1499 1499 1499 1499 1498 1497 1496
1497 1500 1506 1507 1502 1492 1483 1479 1477 1476 1475 1473 1482 1502 1502 1486 1481 1484 1482 1482 1485 1486 1487 1489 1490 1493 1495 1494 1492 1491 1493 1494 1496 1497 1497 1497 1498 1498 1499 1499 1499 1499 1499 1499 1499 1500 1501 1501 1501 1501 1501 1500 1500 1499 1498 1498 1497 1497 1497 1497 1496 1496 1495
1495 1499 1503 1502 1494 1483 1478 1476 1475 1474 1475 1480 1493 1502 1493 1481 1483 1485 1483 1484 1486 1486 1488 1489 1489 1490 1490 1490 1490 1490 1492 1494 1495 1496 1496 1496 1497 1497 1497 1497 1497 1497 1497 1497 1497 1498 1499 1499 1499 1499 1499 1499 1498 1497 1496 1496 1495 1495 1495 1495 1495 1494 1493
1495 1495 1497 1500 1493 1480 1473 1475 1474 1473 1480 1489 1492 1487 1481 1481 1484 1483 1484 1486 1487 1487 1488 1488 1488 1489 1489 1489 1489 1490 1491 1492 1493 1494 1494 1495 1495 1496 1495 1495 1495 1495 1495 1495 1496 1496 1496 1497 1497 1498 1498 1497 1496 1496 1495 1494 1494 1494 1494 1494 1493 1493 1492
1492 1494 1497 1502 1496 1478 1470 1473 1475 1476 1481 1485 1481 1478 1480 1482 1482 1482 1484 1485 1485 1486 1487 1487 1488 1488 1488 1489 1489 1489 1490 1490 1490 1492 1492 1493 1494 1494 1493 1494 1494 1493 1494 1494 1494 1494 1494 1495 1495 1495 1496 1495 1495 1494 1493 1492 1492 1492 1492 1492 1492 1492 1491
1484 1491 1491 1487 1479 1470 1467 1472 1475 1475 1476 1476 1475 1477 1479 1479 1480 1482 1482 1483 1484 1485 1485 1486 1487 1487 1487 1488 1488 1488 1488 1488 1489 1490 1490 1490 1491 1491 1491 1492 1492 1492 1492 1492 1492 1492 1493 1493 1493 1493 1493 1493 1493 1492 1492 1491 1491 1491 1490 1490 1490 1490 1490
1471 1475 1473 1468 1465 1465 1466 1468 1469 1471 1472 1473 1475 1476 1477 1478 1480 1480 1481 1482 1483 1483 1484 1485 1486 1486 1486 1487 1486 1486 1487 1487 1487 1488 1488 1488 1488 1488 1489 1490 1490 1490 1490 1490 1490 1490 1491 1491 1492 1491 1491 1491 1491 1490 1490 1490 1489 1488 1488 1488 1488 1488 1488
1464 1464 1463 1462 1463 1465 1465 1466 1467 1470 1471 1473 1474 1475 1476 1478 1479 1479 1480 1482 1482 1482 1484 1484 1484 1485 1485 1485 1485 1486 1485 1485 1486 1486 1486 1486 1487 1487 1488 1488 1488 1488 1488 1488 1488 1489 1489 1490 1490 1489 1489 1489 1489 1489 1489 1488 1487 1486 1486 1485 1486 1486 1486
1467 1468 1465 1464 1465 1466 1466 1466 1468 1469 1471 1473 1475 1476 1476 1477 1478 1479 1480 1480 1481 1482 1483 1482 1483 1484 1483 1483 1484 1484 1484 1484 1484 1484 1485 1485 1486 1486 1487 1486 1487 1487 1486 1486 1486 1487 1487 1488 1488 1488 1488 1487 1487 1487 1487 1486 1485 1484 1484 1483 1484 1485 1485
1468 1469 1467 1466 1468 1468 1468 1468 1469 1470 1471 1473 1474 1476 1476 1477 1478 1479 1479 1480 1480 1480 1481 1481 1481 1481 1482 1482 1481 1481 1481 1482 1482 1483 1483 1484 1484 1485 1485 1485 1485 1484 1484 1484 1485 1485 1486 1486 1486 1486 1486 1486 1486 1485 1485 1484 1484 1483 1482 1482 1483 1483 1483
1469 1469 1468 1468 1470 1471 1470 1471 1471 1472 1472 1474 1475 1476 1476 1477 1478 1478 1478 1479 1479 1478 1479 1480 1479 1480 1480 1480 1479 1479 1479 1480 1480 1481 1482 1482 1482 1483 1483 1483 1483 1483 1483 1483 1483 1484 1485 1485 1485 1484 1484 1484 1484 1483 1483 1483 1483 1482 1481 1481 1482 1482 1482
1472 1470 1468 1468 1470 1473 1472 1471 1472 1473 1473 1474 1475 1475 1475 1476 1477 1477 1478 1478 1478 1477 1477 1477 1478 1478 1479 1478 1478 1478 1477 1478 1479 1479 1479 1480 1480 1480 1481 1481 1481 1481 1481 1482 1482 1483 1483 1483 1483 1482 1482 1482 1482 1482 1482 1482 1481 1481 1480 1480 1480 1480 1480
1469 1466 1464 1464 1466 1469 1470 1470 1471 1472 1473 1473 1474 1474 1475 1475 1476 1476 1476 1477 1476 1476 1476 1476 1476 1477 1477 1477 1478 1477 1477 1477 1477 1476 1477 1477 1477 1478 1479 1479 1479 1479 1480 1480 1481 1482 1482 1482 1482 1481 1480 1481 1481 1481 1480 1480 1480 1479 1479 1478 1478 1478 1478
1462 1462 1462 1463 1464 1466 1468 1470 1471 1471 1471 1472 1472 1473 1474 1474 1475 1475 1475 1475 1475 1475 1475 1475 1475 1475 1475 1476 1476 1476 1477 1476 1476 1476 1476 1476 1476 1477 1477 1476 1477 1477 1478 1479 1480 1480 1481 1481 1480 1480 1479 1479 1479 1479 1479 1478 1478 1478 1477 1477 1477 1476 1476
1460 1461 1462 1463 1464 1465 1466 1468 1469 1469 1470 1470 1470 1471 1472 1473 1473 1474 1474 1474 1474 1474 1474 1475 1475 1475 1475 1475 1475 1475 1475 1475 1475 1475 1475 1474 1475 1475 1475 1475 1475 1476 1476 1478 1478 1478 1479 1479 1478 1478 1478 1477 1477 1477 1476 1476 1476 1476 1475 1475 1475 1475 1475